Flag for Germany Weather past 2 weeks in Wermelskirchen, North Rhine-Westphalia, Germany

Now
55 °F

Partly sunny.


Feels Like: 52 °F
Forecast: 39 / 45 °F
Wind: 15 mph from South

Location: Koeln / Bonn

Current Time: Oct 21, 2014 at 12:55:16 PM

Latest Report: Oct 21, 2014 at 12:20 PM


Visibility: N/A

Pressure: 29.71 "Hg

Humidity: 72%

Dew point: 46 °F

Location of WermelskirchenLocation

Historic Weather in Wermelskirchen — Graph

°F

Wermelskirchen temperature yesterday

Maximum temperature yesterday: 63 °F (at 3:50 PM)
Minimum temperature yesterday: 52 °F (at 11:50 PM)
Average temperature yesterday: 58 °F

Past Weeks' High & Low Weather Summary

 TemperatureHumidityPressure
High75 °F (Oct 19, 1:50 PM)100% (Oct 11, 3:50 AM)30.12 "Hg (Oct 11, 3:50 AM)
Low45 °F (Oct 12, 7:50 AM)46% (Oct 14, 2:50 PM)29.53 "Hg (Oct 7, 8:50 AM)
Average58 °F82%29.85 "Hg
* Reported Oct 6 11:20 AM — Oct 21 11:50 AM, Wermelskirchen, Weather by CustomWeather, © 2014

Note: Actual official high and low records may vary slightly from our data, if they occured in-between our weather recording intervals... More about our weather records

Advertising

Wermelskirchen weather history for previous 24 hours

 ConditionsComfort  
Time TempWeatherWind HumidityBarometerVisibility
11:50 AM
Oct 21
55 °FPartly sunny.13 mph72%29.74 "HgN/A
11:20 AM55 °FLight rain. Broken clouds.14 mph77%29.74 "HgN/A
10:50 AM54 °FPartly sunny.13 mph82%29.77 "HgN/A
10:20 AM54 °FPartly sunny.9 mph82%29.80 "HgN/A
9:50 AM54 °FPartly sunny.10 mph82%29.80 "HgN/A
9:20 AM54 °FPartly sunny.9 mph82%29.80 "HgN/A
8:50 AM52 °FClear.10 mph88%29.83 "Hg10 mi
8:20 AM52 °FClear.10 mph88%29.83 "Hg10 mi
7:50 AM52 °FClear.10 mph88%29.83 "Hg10 mi
7:20 AM50 °FPassing clouds.9 mph94%29.86 "HgN/A
6:50 AM50 °FClear.9 mph94%29.86 "Hg10 mi
6:20 AM50 °FPassing clouds.9 mph94%29.86 "HgN/A
5:50 AM50 °FPassing clouds.8 mph88%29.86 "HgN/A
5:20 AM52 °FPartly cloudy.8 mph88%29.89 "HgN/A
4:50 AM52 °FPartly cloudy.8 mph88%29.89 "HgN/A
4:20 AM52 °FPassing clouds.8 mph82%29.92 "HgN/A
3:50 AM50 °FPassing clouds.6 mph94%29.92 "HgN/A
3:20 AM50 °FPassing clouds.6 mph88%29.92 "HgN/A
2:50 AM48 °FPassing clouds.5 mph94%29.95 "HgN/A
2:20 AM48 °FPassing clouds.5 mph94%29.95 "HgN/A
1:50 AM48 °FClear.7 mph87%29.95 "Hg10 mi
1:20 AM50 °FClear.7 mph88%29.95 "Hg10 mi
12:50 AM50 °FClear.6 mph88%29.95 "Hg10 mi
12:20 AM52 °FClear.6 mph82%29.95 "Hg10 mi
11:50 PM
Oct 20
52 °FPassing clouds.7 mph88%29.98 "HgN/A
11:20 PM54 °FPartly cloudy.6 mph82%29.98 "HgN/A
10:50 PM54 °FPassing clouds.7 mph82%29.98 "HgN/A
10:20 PM55 °FPartly cloudy.7 mph77%29.98 "HgN/A
9:50 PM55 °FPassing clouds.7 mph77%29.98 "HgN/A
9:20 PM54 °FPassing clouds.5 mph82%29.98 "HgN/A
8:50 PM54 °FPassing clouds.6 mph88%29.98 "HgN/A
8:20 PM54 °FPassing clouds.5 mph88%30.01 "HgN/A
7:50 PM55 °FClear.1 mph82%30.01 "Hg10 mi
7:20 PM55 °FScattered clouds.2 mph82%30.01 "HgN/A
6:50 PM55 °FScattered clouds.6 mph82%30.01 "HgN/A
6:20 PM57 °FScattered clouds.6 mph72%29.98 "HgN/A
5:50 PM59 °FScattered clouds.5 mph72%30.01 "HgN/A
5:20 PM61 °FScattered clouds.8 mph68%30.01 "HgN/A
4:50 PM61 °FBroken clouds.9 mph68%30.01 "HgN/A
4:20 PM61 °FBroken clouds.10 mph68%30.04 "HgN/A
3:50 PM63 °FBroken clouds.12 mph64%30.04 "HgN/A
3:20 PM61 °FPartly sunny.12 mph72%30.04 "HgN/A
2:50 PM61 °FBroken clouds.10 mph72%30.04 "HgN/A
2:20 PM59 °FPartly sunny.10 mph72%30.07 "HgN/A
1:50 PM59 °FPartly sunny.13 mph72%30.07 "HgN/A
1:20 PM61 °FBroken clouds.14 mph68%30.07 "HgN/A
12:50 PM59 °FBroken clouds.12 mph72%30.07 "HgN/A
12:20 PM59 °FLight rain. Broken clouds.10 mph72%30.07 "HgN/A
Weather by CustomWeather, © 2014

See weather overviewHow to use our weather pages